This is the latest recevied weather packets stored in our database for station/object KI5MKI. If no packets are shown the sender has not sent any weather packets the latest 10 day(s).
| Time | Temp. | Humidity | Pressure | Rain* | Wind** | Luminosity | Snow |
|---|---|---|---|---|---|---|---|
| 1777684112 | 15° C | 79% | 1017.4 hPa | 0 mm | - | 1 W/m² | - |
| 1777683808 | 15.56° C | 79% | 1017.5 hPa | 0 mm | - | 1 W/m² | - |
| 1777683505 | 15.56° C | 79% | 1017.4 hPa | 0 mm | - | 2 W/m² | - |
| 1777683204 | 15.56° C | 79% | 1017.4 hPa | 0 mm | - | 3 W/m² | - |
| 1777682901 | 15.56° C | 78% | 1017.4 hPa | 0 mm | - | 3 W/m² | - |
| 1777682596 | 16.11° C | 77% | 1017 hPa | 0 mm | - | 8 W/m² | - |
| 1777682295 | 16.11° C | 76% | 1017 hPa | 0 mm | - | 9 W/m² | - |
| 1777681991 | 16.11° C | 75% | 1016.9 hPa | 0 mm | - | 11 W/m² | - |
| 1777681687 | 16.11° C | 74% | 1016.8 hPa | 0 mm | - | 12 W/m² | - |
| 1777681385 | 16.11° C | 71% | 1016.7 hPa | 0 mm | - | 12 W/m² | - |
| 1777681082 | 16.11° C | 70% | 1016.6 hPa | 0 mm | - | 19 W/m² | - |
| 1777680780 | 16.11° C | 72% | 1016.2 hPa | 0 mm | - | 26 W/m² | - |
| 1777680477 | 16.11° C | 72% | 1016.2 hPa | 0 mm | - | 33 W/m² | - |
| 1777680176 | 16.11° C | 72% | 1016.3 hPa | 0 mm | - | 38 W/m² | - |
| 1777679875 | 16.11° C | 72% | 1016.1 hPa | 0 mm | - | 33 W/m² | - |
| 1777679572 | 16.67° C | 72% | 1016.2 hPa | 0 mm | - | 28 W/m² | - |
| 1777679268 | 16.67° C | 70% | 1016.4 hPa | 0 mm | - | 28 W/m² | - |
| 1777678965 | 16.67° C | 69% | 1016 hPa | 0 mm | - | 44 W/m² | - |
| 1777678663 | 16.67° C | 69% | 1015.9 hPa | 0 mm | - | 39 W/m² | - |
| 1777678361 | 16.67° C | 69% | 1016.2 hPa | 0 mm | - | 43 W/m² | - |
| 1777678056 | 16.67° C | 70% | 1016 hPa | 0 mm | - | 54 W/m² | - |
| 1777677753 | 16.67° C | 69% | 1016.1 hPa | 0 mm | - | 65 W/m² | - |
| 1777677451 | 16.67° C | 69% | 1016 hPa | 0 mm | - | 76 W/m² | - |
| 1777677149 | 16.67° C | 69% | 1016.1 hPa | 0 mm | - | 66 W/m² | - |
| 1777676847 | 16.67° C | 68% | 1016 hPa | 0 mm | - | 81 W/m² | - |
* Rain latest hour (hover to see other rain measurements)
** Current wind speed in m/s (hover to see current wind gust speed)